Home   Weather   Missoula   Past weeks

Flag for USA Past Weather in Missoula, Montana, USA — Yesterday and Last 2 Weeks

Now
0 °F

Clear.


Feels Like: -10 °F
Forecast: 7 / 26 °F
Wind: 5 mph from East

Location: Missoula International Airport

Current Time: Jan 17, 2017 at 4:00:47 am

Latest Report: Jan 17, 2017 at 2:53 am


Visibility: 5 mi

Pressure: 30.40 "Hg (26.70 "Hg at 971m altitude)

Humidity: 91%

Dew Point: -2 °F

Location of MissoulaLocation

Past Weather in Missoula — Graph

°F

Missoula Temperature Yesterday

Maximum temperature yesterday: 11 °F (at 2:53 pm)
Minimum temperature yesterday: -7 °F (at 6:53 am)
Average temperature yesterday: 0 °F

High & Low Weather Summary for the Past Weeks

 TemperatureHumidityPressure
High32 °F (Jan 9, 3:53 pm)100% (Jan 5, 10:25 am)30.86 "Hg (Jan 5, 10:25 am)
Low-19 °F (Jan 5, 6:53 am)56% (Jan 2, 1:53 pm)29.51 "Hg (Jan 10, 2:32 pm)
Average7 °F83%30.23 "Hg
* Reported Jan 2 2:53 am — Jan 17 2:53 am, Missoula, Weather by CustomWeather, © 2017

Note: Actual official high and low records may vary slightly from our data, if they occured in-between our weather recording intervals... More about our weather records

Advertising

Missoula Weather History for the Previous 24 Hours

Scroll right to see more
 ConditionsComfort  
Time TempWeatherWind HumidityBarometerVisibility
2:53 am
Tue, Jan 17
0 °FClear.5 mph91%30.40 "Hg5 mi
1:53 am-2 °FClear.No wind91%30.43 "Hg5 mi
12:53 am1 °FClear.No wind83%30.45 "Hg5 mi
11:53 pm
Mon, Jan 16
0 °FClear.No wind87%30.47 "Hg5 mi
10:53 pm1 °FClear.3 mph92%30.48 "Hg5 mi
9:53 pm1 °FClear.No wind92%30.49 "Hg6 mi
8:53 pm6 °FClear.7 mph79%30.50 "Hg7 mi
7:53 pm6 °FClear.5 mph83%30.52 "Hg7 mi
6:53 pm4 °FClear.No wind84%30.51 "Hg7 mi
5:53 pm8 °FClear.No wind76%30.53 "Hg8 mi
4:53 pm8 °FSunny.No wind72%30.54 "Hg6 mi
3:53 pm8 °FSunny.No wind76%30.53 "Hg6 mi
2:53 pm11 °FSunny.No wind67%30.52 "Hg6 mi
1:53 pm7 °FSunny.No wind73%30.56 "Hg6 mi
12:53 pm3 °FSunny.No wind79%30.60 "Hg5 mi
11:53 am2 °FSunny.No wind88%30.64 "Hg5 mi
10:53 am0 °FSunny.No wind100%30.66 "Hg3 mi
9:53 am-7 °FSunny.No wind96%30.68 "Hg10 mi
9:05 am-6 °FPassing clouds.No wind91%30.41 "Hg3 mi
8:49 am-6 °FPassing clouds.No wind84%30.41 "Hg1 mi
7:53 am-5 °FClear.3 mph87%30.64 "Hg5 mi
6:53 am-7 °FClear.No wind83%30.63 "Hg10 mi
5:53 am-6 °FClear.No wind87%30.64 "Hg10 mi
4:53 am-4 °FIce fog.No wind83%30.64 "Hg6 mi
Weather by CustomWeather, © 2017

See weather overviewHow to use our weather pages